DW8305 Weather Reports


time (UTC)temp
F
wind
direction
speed
knots
gust
knots
rain 1hr
in
rain 24hr
in
rain mn
in
humidity
%
barometer
mb
20260506175916 48 45 2.6 6.1 0.13 1.11 1.11 94 1009.2
20260506174916 48 45 2.6 6.1 0.13 1.09 1.09 94 1009.1
20260506173916 48 23 2.6 6.1 0.13 1.08 1.08 94 1009.1
20260506172916 48 0 0.9 1.7 0.15 1.06 1.06 94 1009.2
20260506171916 48 45 0.9 1.7 0.17 1.03 1.03 94 1009.1
20260506170916 48 0.0 0.9 0.19 1.02 1.02 94 1008.9
20260506165916 48 23 1.7 3.5 0.19 0.98 0.98 94 1008.9
20260506164916 48 0 0.9 2.6 0.20 0.97 0.97 95 1008.9
20260506163916 48 45 2.6 4.3 0.18 0.94 0.94 95 1008.9
20260506162916 48 0 0.9 1.7 0.14 0.90 0.90 95 1008.9
20260506161916 48 0 0.9 3.5 0.10 0.86 0.86 95 1008.9
20260506160916 48 0.0 0.0 0.07 0.82 0.82 95 1008.9
20260506155916 48 45 1.7 2.6 0.05 0.80 0.80 95 1008.8
20260506154916 48 45 3.5 5.2 0.03 0.77 0.77 95 1008.8
20260506153916 48 45 2.6 6.1 0.02 0.76 0.76 95 1008.8
20260506152936 48 45 2.6 4.3 0.02 0.76 0.76 95 1008.7
20260506151916 48 23 2.6 4.3 0.03 0.76 0.76 95 1008.8
20260506150916 48 0 1.7 2.6 0.02 0.75 0.75 95 1008.7
20260506145916 48 68 1.7 3.5 0.02 0.75 0.75 95 1008.7
20260506144916 48 23 2.6 6.1 0.02 0.74 0.74 95 1008.6
20260506143916 48 45 0.9 2.6 0.03 0.74 0.74 95 1008.5
20260506142916 48 68 3.5 7.8 0.03 0.73 0.73 95 1008.6
20260506141936 48 45 3.5 7.0 0.03 0.72 0.72 95 1008.6
20260506140916 48 45 1.7 3.5 0.03 0.72 0.72 95 1008.6
20260506135916 48 45 3.5 5.2 0.04 0.72 0.72 95 1008.6
20260506134916 48 45 2.6 6.1 0.03 0.72 0.72 95 1008.7
20260506133917 48 45 2.6 4.3 0.02 0.71 0.71 95 1008.7
20260506132916 48 68 3.5 7.0 0.02 0.70 0.70 95 1008.7
20260506131916 48 45 3.5 5.2 0.01 0.69 0.69 96 1008.6
20260506130916 48 45 4.3 7.8 0.01 0.69 0.69 96 1008.6
20260506125936 48 45 2.6 4.3 0.00 0.69 0.69 96 1008.6
20260506124916 48 45 3.5 7.0 0.01 0.69 0.69 96 1008.5
20260506123916 48 68 4.3 5.2 0.01 0.69 0.69 96 1008.5
20260506122916 48 45 2.6 6.1 0.01 0.69 0.69 96 1008.4
20260506121916 48 68 2.6 5.2 0.01 0.69 0.69 96 1008.4
20260506120936 48 68 2.6 4.3 0.01 0.69 0.69 96 1008.4
20260506115916 48 45 6.1 8.7 0.01 0.69 0.69 96 1008.2
20260506114916 48 45 2.6 4.3 0.01 0.68 0.68 96 1008.3
20260506113916 47 45 3.5 7.0 0.01 0.68 0.68 96 1008.3
20260506112916 48 68 3.5 5.2 0.02 0.68 0.68 96 1008.4
20260506111916 48 45 3.5 6.1 0.02 0.68 0.68 96 1008.4
20260506110936 47 68 5.2 7.8 0.03 0.68 0.68 96 1008.3
20260506105936 47 23 4.3 6.1 0.04 0.68 0.68 96 1008.3
20260506104916 47 90 2.6 4.3 0.03 0.67 0.67 96 1008.3
20260506103916 47 68 3.5 4.3 0.03 0.66 0.66 96 1008.3
20260506102936 47 45 4.3 5.2 0.03 0.66 0.66 96 1008.3
20260506101916 47 68 4.3 6.1 0.03 0.65 0.65 96 1008.2
20260506100936 46 45 0.9 2.6 0.03 0.65 0.65 96 1008.3
20260506095956 46 90 2.6 4.3 0.03 0.64 0.64 96 1008.3
20260506094916 46 45 1.7 3.5 0.05 0.64 0.64 96 1008.3
20260506093916 46 68 0.9 1.7 0.05 0.63 0.63 96 1008.2
20260506092916 46 90 1.7 2.6 0.06 0.63 0.63 96 1008.2
20260506091916 46 45 0.9 1.7 0.07 0.62 0.62 97 1008.2
20260506090936 45 113 1.7 2.6 0.07 0.61 0.61 97 1008.2
20260506085916 45 0.0 0.9 0.08 0.61 0.61 97 1008.2
20260506084936 45 45 2.6 5.2 0.08 0.60 0.59 97 1008.2
20260506083916 45 45 2.6 3.5 0.09 0.59 0.58 97 1008.2
20260506082916 45 68 1.7 2.6 0.09 0.57 0.57 97 1008.1
20260506081916 44 68 1.7 3.5 0.09 0.56 0.55 97 1008.1
20260506080916 44 68 2.6 3.5 0.09 0.54 0.54 97 1008.1
20260506072916 44 45 1.7 1.7 0.09 0.50 0.48 97 1007.9
20260506071916 44 68 2.6 5.2 0.07 0.48 0.46 97 1007.8
20260506070916 44 68 2.6 4.3 0.06 0.46 0.44 97 1007.8
20260506061936 44 90 0.9 1.7 0.06 0.41 0.39 97 1007.6
20260506060916 44 45 1.7 3.5 0.06 0.39 0.37 97 1007.6
20260506050916 44 68 0.9 1.7 0.09 0.33 0.31 96 1007.5
20260506044916 45 23 2.6 5.2 0.08 0.30 0.28 96 1007.5
20260506043916 45 68 1.7 4.3 0.09 0.29 0.27 96 1007.5
20260506042916 45 23 3.5 6.1 0.09 0.28 0.25 96 1007.5
20260506041916 46 0 1.7 3.5 0.09 0.26 0.24 96 1007.5
20260506040937 47 45 1.7 3.5 0.09 0.24 0.22 96 1007.5
20260506035916 47 68 0.9 0.9 0.09 0.25 0.20 96 1007.5
20260506034916 47 68 0.9 1.7 0.09 0.24 0.19 96 1007.5
20260506033936 47 0.0 0.9 0.09 0.22 0.17 96 1007.6
20260506032916 47 45 0.9 2.6 0.07 0.20 0.15 96 1007.6
20260506031916 48 0.0 1.7 0.07 0.19 0.14 96 1007.7
20260506030916 48 0.0 0.9 0.07 0.17 0.13 95 1007.7
20260506025916 48 45 0.9 1.7 0.06 0.17 0.11 95 1007.8
20260506024936 48 45 0.9 2.6 0.06 0.15 0.09 95 1007.8
20260506023916 48 23 1.7 2.6 0.05 0.14 0.09 95 1007.9
20260506022916 48 90 0.9 1.7 0.04 0.13 0.07 94 1007.9
20260506021936 48 0.0 0.9 0.03 0.12 0.06 94 1008.0
20260506020916 48 68 0.9 2.6 0.03 0.11 0.06 94 1008.0
20260506015936 48 45 0.9 1.7 0.03 0.11 0.05 94 1008.1
20260506014916 48 68 1.7 4.3 0.03 0.10 0.04 93 1008.1
20260506013916 49 45 2.6 4.3 0.04 0.10 0.04 93 1008.2
20260506012916 49 45 0.9 1.7 0.03 0.09 0.03 93 1008.2
20260506011916 49 45 1.7 2.6 0.03 0.09 0.03 92 1008.2
20260506010915 49 23 1.7 3.5 0.02 0.09 0.02 91 1008.3
20260506005916 50 45 0.9 2.6 0.02 0.09 0.02 89 1008.3
20260506004916 50 23 0.9 1.7 0.01 0.08 0.01 88 1008.4
20260506003916 51 45 0.9 1.7 0.00 0.07 0.00 87 1008.5
20260506002915 51 45 0.9 1.7 0.00 0.07 0.00 86 1008.7
20260506001916 51 90 1.7 2.6 0.00 0.07 0.00 86 1008.7
20260506000916 51 23 1.7 3.5 0.00 0.07 0.00 86 1008.8
20260505235916 51 68 2.6 5.2 0.00 0.08 0.00 86 1008.9
20260505234916 51 45 3.5 5.2 0.00 0.08 0.00 87 1009.0
20260505233916 51 23 2.6 7.0 0.00 0.08 0.00 88 1009.1
20260505232916 51 68 2.6 3.5 0.00 0.08 0.00 89 1009.1
20260505231915 52 68 1.7 3.5 0.00 0.08 0.00 90 1009.1
20260505230916 52 45 2.6 3.5 0.00 0.08 0.00 91 1009.1
20260505225916 52 68 2.6 3.5 0.00 0.10 0.00 91 1009.2
20260505224916 52 23 0.9 2.6 0.00 0.10 0.00 91 1009.3
20260505223936 52 90 2.6 4.3 0.00 0.10 0.00 91 1009.4
20260505222916 52 68 1.7 3.5 0.00 0.10 0.00 91 1009.4
20260505221916 52 45 1.7 2.6 0.00 0.10 0.00 91 1009.4
20260505220916 52 45 1.7 3.5 0.00 0.10 0.00 91 1009.4
20260505215916 52 113 1.7 3.5 0.00 0.16 0.10 91 1009.4
20260505214916 52 90 0.9 2.6 0.00 0.16 0.10 91 1009.5
20260505213916 52 45 2.6 5.2 0.00 0.16 0.10 91 1009.6
20260505212916 52 68 1.7 3.5 0.00 0.16 0.10 91 1009.8
20260505211916 52 45 3.5 4.3 0.00 0.16 0.10 91 1009.9
20260505210916 52 23 0.9 1.7 0.00 0.16 0.10 91 1009.9
20260505205916 52 68 1.7 2.6 0.00 0.16 0.10 91 1009.9
20260505204916 52 68 3.5 6.1 0.00 0.16 0.10 91 1009.9
20260505203936 52 68 1.7 2.6 0.00 0.16 0.10 91 1009.8
20260505202916 52 68 3.5 6.1 0.00 0.16 0.10 91 1009.8
20260505201916 52 90 3.5 5.2 0.00 0.16 0.10 91 1009.7
20260505200916 52 45 3.5 5.2 0.00 0.16 0.10 91 1009.8
20260505195916 53 68 6.1 9.6 0.00 0.16 0.10 92 1009.7
20260505194916 53 68 2.6 5.2 0.00 0.16 0.10 92 1009.7
20260505193956 53 68 2.6 4.3 0.00 0.16 0.10 92 1009.7
20260505192916 53 45 5.2 7.8 0.00 0.16 0.10 92 1009.7
20260505191916 53 45 2.6 5.2 0.00 0.16 0.10 92 1009.8
20260505190916 53 68 1.7 3.5 0.00 0.16 0.10 93 1009.8
20260505185916 54 45 2.6 3.5 0.00 0.16 0.10 92 1009.8
20260505184916 54 45 1.7 3.5 0.00 0.16 0.10 92 1009.6
20260505183916 54 68 3.5 6.1 0.00 0.16 0.10 92 1009.6
20260505182916 54 68 2.6 4.3 0.00 0.16 0.10 92 1009.7
20260505181916 54 45 1.7 4.3 0.00 0.16 0.10 92 1009.7
20260505180916 54 68 3.5 5.2 0.00 0.16 0.10 92 1009.6